#timestamp,LO_Frequency,Hit,StdDev 
1560866415.3,286046993.6,N
1560866435.2,286046993.8,Y
1560866455.9,286047001.0,P
1560866475.7,286046998.4,N
1560866495.6,286046999.5,N
1560866515.4,286046998.7,N
1560866535.3,286046998.5,N
1560866555.1,286047002.7,N
1560866556.0,286047002.7,N
1560866575.8,286047000.3,N
1560866595.7,286047001.0,N
1560866615.5,286047001.2,N
1560866635.3,286046998.6,N
1560866655.2,286046998.4,N
1560866675.0,286046999.3,N
1560866675.9,286046999.3,N
1560866695.8,286046999.0,N
1560866715.6,286046998.7,N
1560866735.4,286046999.5,N
1560866755.3,286046998.8,N
1560866775.1,286047001.0,N
1560866795.8,286047003.8,N
1560866815.7,286047004.9,N
1560866835.5,286047008.5,Y
1560866855.4,286047010.6,P
1560866875.2,286047009.2,N
1560866895.0,286047007.9,N
1560866895.9,286047007.9,N
1560866915.8,286047009.4,N
1560866935.6,286047009.7,N
1560866955.5,286047008.1,N
1560866975.3,286047008.4,N
1560866995.1,286047008.5,N
1560867015.9,286047007.9,N
1560867035.7,286047008.5,Y
1560867055.5,286046998.2,P
1560867075.4,286047003.6,N
1560867095.2,286047003.8,N
1560867115.1,286047003.6,N
1560867116.0,286047003.6,N
1560867135.8,286047007.1,N
1560867155.6,286047007.8,N
1560867175.5,286047010.5,Y
1560867195.3,286047009.2,P
1560867215.1,286047010.5,P
1560867235.9,286047010.8,P
1560867255.7,286047010.1,Y
1560867275.6,286047000.6,P
1560867295.4,286047002.7,N
1560867315.2,286047006.0,N
1560867335.1,286047005.1,N
1560867336.0,286047005.1,N
1560867355.8,286047003.1,N
1560867375.7,286047006.3,N
1560867395.5,286047006.7,N
1560867415.3,286047007.1,Y
1560867435.2,286047000.8,P
1560867455.0,286046999.9,N
1560867455.9,286046999.9,N
1560867475.7,286047003.8,N
1560867495.6,286047005.9,N
1560867515.4,286047005.0,N
1560867535.3,286047005.3,N
1560867555.1,286047002.0,N
1560867556.0,286047002.0,N
1560867575.8,286046998.3,N
1560867595.7,286046997.5,N
1560867615.5,286046994.0,N
1560867635.4,286046993.4,N
1560867655.2,286046994.5,N
1560867675.0,286046994.2,N
1560867675.9,286046994.2,N
1560867695.8,286046991.5,N
1560867715.6,286046987.2,N
1560867735.4,286046985.9,N
1560867755.3,286046986.0,N
1560867775.1,286046984.3,N
1560867795.9,286046985.8,N
1560867815.7,286046983.7,N
1560867835.5,286046984.6,N
1560867855.4,286046984.4,N
1560867875.2,286046981.6,N
1560867895.0,286046977.5,N
1560867895.9,286046977.5,N
1560867915.8,286046977.9,N
1560867935.6,286046975.9,N
1560867955.5,286046975.7,N
1560867975.3,286046978.4,N
1560867995.1,286046976.4,N
1560868015.9,286046977.2,N
1560868035.7,286046977.1,N
1560868055.5,286046978.0,N
1560868075.4,286046979.6,N
1560868095.2,286046977.5,N
1560868115.1,286046977.3,N
1560868116.0,286046977.3,Y
1560868135.8,286046996.1,P
1560868155.6,286046996.8,N
1560868175.5,286047004.3,N
1560868195.3,286047006.3,N
1560868215.2,286047007.5,N
1560868235.9,286047007.1,N
1560868255.7,286047007.8,N
1560868275.6,286047008.3,N
1560868295.4,286047010.0,N
1560868315.2,286047005.1,N
1560868335.1,286047007.1,N
1560868336.0,286047007.1,N
1560868355.8,286047003.5,N
1560868375.7,286047009.2,N
1560868395.5,286047007.5,N
1560868415.3,286047008.6,N
1560868435.2,286047008.4,N
1560868455.0,286047008.8,N
1560868455.9,286047008.8,N
1560868475.7,286047009.0,N
1560868495.6,286047010.4,N
1560868515.4,286047007.6,N
1560868535.3,286047005.1,N
1560868555.1,286047007.2,N
1560868556.0,286047011.9,N
1560868575.8,286047001.4,N
1560868595.7,286046998.2,N
1560868645.5,286046996.4,E
1560868655.5,286046995.4,N
1560868675.3,286046994.9,P
1560868695.1,286046995.9,P
1560868715.9,286046992.2,Y
1560868735.7,286046996.8,P
1560868755.6,286046998.5,N
1560868775.4,286047000.3,N
1560868795.2,286046998.1,N
1560868815.1,286046999.7,N
1560868816.0,286046999.7,N
1560868835.8,286047004.2,N
1560868855.7,286047003.0,N
1560868875.5,286047002.9,N
1560868895.3,286047002.9,N
1560868915.2,286047004.4,N
1560868935.0,286047001.5,N
1560868935.9,286047001.5,N
1560868955.8,286047001.4,N
1560868975.6,286047003.0,N
1560868995.4,286047007.1,N
1560869015.3,286047006.3,N
1560869035.1,286047007.5,N
1560869055.8,286047006.3,N
1560869075.7,286047007.8,N
1560869095.5,286047010.8,Y
1560869115.4,286047010.3,P
1560869135.2,286047010.1,N
1560869155.0,286047008.0,N
1560869155.9,286047008.0,N
1560869175.8,286047008.2,N
1560869195.6,286047008.2,Y
1560869215.5,286046999.7,P
1560869235.3,286047003.8,N
1560869255.1,286047003.9,N
1560869275.9,286047002.1,N
1560869295.7,286046998.2,N
1560869315.5,286046999.3,N
1560869335.4,286046998.6,N
1560869355.2,286047000.1,N
1560869375.1,286047003.2,N
1560869376.0,286047003.2,N
1560869395.8,286047004.5,N
1560869415.6,286047003.1,N
1560869435.5,286047007.3,N
1560869455.3,286047009.0,Y
1560869475.1,286047003.9,P
1560869495.9,286046998.5,N
1560869515.7,286047000.8,N
1560869535.6,286047000.8,N
1560869555.4,286047007.3,Y
1560869575.2,286047004.7,P
1560869595.1,286047004.7,N
1560869596.0,286047004.7,N
1560869615.8,286047005.1,Y
1560869635.7,286046998.6,P
1560869655.5,286046995.2,N
1560869675.3,286046994.1,N
1560869695.2,286046995.4,N
1560869715.9,286046993.1,N
1560869735.7,286046989.9,N
1560869755.6,286046989.6,N
1560869775.4,286046987.6,N
1560869795.3,286046986.5,N
1560869815.1,286046984.8,Y
1560869816.0,286046984.8,P
1560869835.8,286046988.8,N
1560869855.7,286046985.3,P
1560869875.5,286046985.6,Y
1560869895.4,286046999.5,P
1560869915.2,286046999.5,N
1560869935.0,286046998.2,N
1560869935.9,286046998.2,N
1560869955.8,286047002.9,N
1560869975.6,286047002.7,N
1560869995.4,286047000.3,N
